| time (UTC) | temp F | wind direction | speed MPH | gust MPH | rain 1hr in | rain 24hr in | rain mn in | humidity % | barometer mb |
| 20260906154404 | 74 | 108 | 1.0 | 3.0 | 0.00 | 0.00 | 0.00 | 82 | 1020.5 |
| 20260906153905 | 74 | 92 | 2.0 | 6.0 | 0.00 | 0.00 | 0.00 | 82 | 1020.4 |
| 20260906152406 | 74 | 127 | 4.0 | 7.0 | 0.00 | 0.00 | 0.00 | 81 | 1020.0 |
| 20260906151906 | 74 | 126 | 3.0 | 9.0 | 0.00 | 0.00 | 0.00 | 80 | 1020.0 |
| 20260906151404 | 74 | 151 | 2.0 | 8.0 | 0.00 | 0.00 | 0.00 | 80 | 1019.8 |
| 20260906150906 | 74 | 147 | 4.0 | 12.0 | 0.00 | 0.00 | 0.00 | 81 | 1019.8 |
| 20260906150405 | 75 | 132 | 1.0 | 12.0 | 0.00 | 0.00 | 0.00 | 81 | 1019.7 |
| 20260906145905 | 75 | 84 | 3.0 | 9.0 | 0.00 | 0.00 | 0.00 | 81 | 1019.6 |
| 20260906145405 | 75 | 153 | 2.0 | 3.0 | 0.00 | 0.00 | 0.00 | 81 | 1019.6 |
| 20260906144405 | 75 | 136 | 4.0 | 8.0 | 0.00 | 0.00 | 0.00 | 80 | 1019.5 |
| 20260906143904 | 75 | 128 | 3.0 | 9.0 | 0.00 | 0.00 | 0.00 | 80 | 1019.4 |
| 20260906143405 | 75 | 141 | 3.0 | 7.0 | 0.00 | 0.00 | 0.00 | 80 | 1019.4 |
| 20260906142904 | 75 | 169 | 2.0 | 9.0 | 0.00 | 0.00 | 0.00 | 80 | 1019.5 |
| 20260906142405 | 75 | 119 | 1.0 | 8.0 | 0.00 | 0.00 | 0.00 | 79 | 1019.4 |
| 20260906141905 | 75 | 136 | 3.0 | 9.0 | 0.00 | 0.00 | 0.00 | 79 | 1019.4 |
| 20260906141405 | 75 | 152 | 4.0 | 8.0 | 0.00 | 0.00 | 0.00 | 79 | 1019.3 |
| 20260906140905 | 75 | 133 | 3.0 | 7.0 | 0.00 | 0.00 | 0.00 | 79 | 1019.3 |
| 20260906140405 | 76 | 131 | 2.0 | 8.0 | 0.00 | 0.00 | 0.00 | 78 | 1019.4 |
| 20260906135905 | 76 | 163 | 3.0 | 8.0 | 0.00 | 0.00 | 0.00 | 78 | 1019.3 |
| 20260906135404 | 76 | 155 | 2.0 | 8.0 | 0.00 | 0.00 | 0.00 | 78 | 1019.2 |
| 20260906134904 | 76 | 146 | 4.0 | 9.0 | 0.00 | 0.00 | 0.00 | 78 | 1019.2 |
| 20260906134405 | 76 | 172 | 3.0 | 9.0 | 0.00 | 0.00 | 0.00 | 78 | 1019.1 |
| 20260906133905 | 76 | 144 | 3.0 | 9.0 | 0.00 | 0.00 | 0.00 | 78 | 1019.1 |
| 20260906133405 | 76 | 116 | 6.0 | 12.0 | 0.00 | 0.00 | 0.00 | 77 | 1019.1 |
| 20260906132905 | 76 | 130 | 3.0 | 9.0 | 0.00 | 0.00 | 0.00 | 77 | 1019.1 |
| 20260906132405 | 76 | 139 | 6.0 | 12.0 | 0.00 | 0.00 | 0.00 | 77 | 1019.0 |
| 20260906131904 | 77 | 124 | 5.0 | 12.0 | 0.00 | 0.00 | 0.00 | 76 | 1018.9 |
| 20260906131405 | 77 | 148 | 2.0 | 10.0 | 0.00 | 0.00 | 0.00 | 77 | 1018.9 |
| 20260906130905 | 77 | 137 | 6.0 | 12.0 | 0.00 | 0.00 | 0.00 | 77 | 1018.9 |
| 20260906125405 | 77 | 126 | 5.0 | 10.0 | 0.00 | 0.00 | 0.00 | 76 | 1018.8 |
| 20260906124905 | 77 | 128 | 5.0 | 10.0 | 0.00 | 0.00 | 0.00 | 75 | 1018.7 |
| 20260906123405 | 77 | 128 | 6.0 | 14.0 | 0.00 | 0.00 | 0.00 | 75 | 1018.6 |
| 20260906122905 | 78 | 158 | 6.0 | 17.0 | 0.00 | 0.00 | 0.00 | 75 | 1018.6 |
| 20260906122405 | 78 | 100 | 6.0 | 12.0 | 0.00 | 0.00 | 0.00 | 75 | 1018.6 |
| 20260906121905 | 77 | 109 | 9.0 | 14.0 | 0.00 | 0.00 | 0.00 | 75 | 1018.6 |
| 20260906121404 | 77 | 159 | 3.0 | 10.0 | 0.00 | 0.00 | 0.00 | 76 | 1018.6 |
| 20260906120904 | 77 | 101 | 6.0 | 12.0 | 0.00 | 0.00 | 0.00 | 76 | 1018.7 |
| 20260906115904 | 78 | 138 | 7.0 | 15.0 | 0.00 | 0.00 | 0.00 | 75 | 1018.7 |
| 20260906115405 | 78 | 136 | 6.0 | 13.0 | 0.00 | 0.00 | 0.00 | 74 | 1018.8 |
| 20260906114905 | 78 | 123 | 3.0 | 9.0 | 0.00 | 0.00 | 0.00 | 74 | 1018.7 |
| 20260906114404 | 78 | 146 | 6.0 | 14.0 | 0.00 | 0.00 | 0.00 | 75 | 1018.8 |
| 20260906112904 | 78 | 96 | 6.0 | 12.0 | 0.00 | 0.00 | 0.00 | 74 | 1018.8 |
| 20260906112405 | 78 | 99 | 6.0 | 12.0 | 0.00 | 0.00 | 0.00 | 73 | 1018.8 |
| 20260906111905 | 79 | 89 | 6.0 | 12.0 | 0.00 | 0.00 | 0.00 | 74 | 1018.9 |
| 20260906111405 | 79 | 83 | 7.0 | 13.0 | 0.00 | 0.00 | 0.00 | 74 | 1018.8 |
| 20260906110905 | 79 | 80 | 9.0 | 13.0 | 0.00 | 0.00 | 0.00 | 73 | 1018.9 |
| 20260906110405 | 79 | 105 | 4.0 | 14.0 | 0.00 | 0.00 | 0.00 | 74 | 1018.9 |
| 20260906105404 | 79 | 112 | 6.0 | 12.0 | 0.00 | 0.00 | 0.00 | 72 | 1019.0 |
| 20260906104905 | 79 | 103 | 6.0 | 15.0 | 0.00 | 0.00 | 0.00 | 73 | 1019.0 |
| 20260906104405 | 79 | 109 | 6.0 | 16.0 | 0.00 | 0.00 | 0.00 | 74 | 1019.0 |
| 20260906103905 | 79 | 97 | 8.0 | 15.0 | 0.00 | 0.00 | 0.00 | 72 | 1019.1 |
| 20260906102904 | 80 | 95 | 6.0 | 12.0 | 0.00 | 0.00 | 0.00 | 72 | 1019.1 |
| 20260906101905 | 79 | 125 | 6.0 | 12.0 | 0.00 | 0.00 | 0.00 | 73 | 1019.2 |
| 20260906101405 | 79 | 105 | 6.0 | 12.0 | 0.00 | 0.00 | 0.00 | 72 | 1019.4 |
| 20260906100905 | 80 | 120 | 7.0 | 14.0 | 0.00 | 0.00 | 0.00 | 72 | 1019.5 |
| 20260906100404 | 79 | 90 | 5.0 | 12.0 | 0.00 | 0.00 | 0.00 | 72 | 1019.6 |
| 20260906095905 | 79 | 149 | 8.0 | 14.0 | 0.00 | 0.00 | 0.00 | 72 | 1019.7 |
| 20260906095404 | 79 | 84 | 7.0 | 14.0 | 0.00 | 0.00 | 0.00 | 72 | 1019.7 |
| 20260906094905 | 79 | 132 | 9.0 | 16.0 | 0.00 | 0.00 | 0.00 | 71 | 1019.8 |
| 20260906094404 | 79 | 102 | 6.0 | 13.0 | 0.00 | 0.00 | 0.00 | 71 | 1019.9 |
| 20260906093904 | 78 | 85 | 8.0 | 14.0 | 0.00 | 0.00 | 0.00 | 71 | 1019.9 |
| 20260906093405 | 79 | 144 | 7.0 | 15.0 | 0.00 | 0.00 | 0.00 | 72 | 1019.9 |
| 20260906092904 | 79 | 88 | 6.0 | 17.0 | 0.00 | 0.00 | 0.00 | 72 | 1019.9 |
| 20260906092405 | 79 | 90 | 8.0 | 17.0 | 0.00 | 0.00 | 0.00 | 73 | 1020.0 |
| 20260906090905 | 79 | 63 | 7.0 | 13.0 | 0.00 | 0.00 | 0.00 | 73 | 1020.1 |
| 20260906090404 | 79 | 128 | 8.0 | 15.0 | 0.00 | 0.00 | 0.00 | 73 | 1020.2 |
| 20260906085905 | 79 | 79 | 6.0 | 15.0 | 0.00 | 0.00 | 0.00 | 72 | 1020.2 |
| 20260906085405 | 78 | 89 | 8.0 | 13.0 | 0.00 | 0.00 | 0.00 | 72 | 1020.2 |
| 20260906084905 | 78 | 118 | 7.0 | 17.0 | 0.00 | 0.00 | 0.00 | 73 | 1020.2 |
| 20260906084405 | 78 | 133 | 8.0 | 18.0 | 0.00 | 0.00 | 0.00 | 74 | 1020.3 |
| 20260906083905 | 78 | 126 | 9.0 | 17.0 | 0.00 | 0.00 | 0.00 | 73 | 1020.3 |
| 20260906083405 | 78 | 76 | 10.0 | 14.0 | 0.00 | 0.00 | 0.00 | 72 | 1020.5 |
| 20260906082905 | 78 | 95 | 10.0 | 18.0 | 0.00 | 0.00 | 0.00 | 71 | 1020.6 |
| 20260906082404 | 78 | 92 | 9.0 | 15.0 | 0.00 | 0.00 | 0.00 | 72 | 1020.7 |
| 20260906081904 | 79 | 73 | 4.0 | 12.0 | 0.00 | 0.00 | 0.00 | 72 | 1020.7 |
| 20260906081405 | 78 | 109 | 7.0 | 14.0 | 0.00 | 0.00 | 0.00 | 72 | 1020.7 |
| 20260906080904 | 78 | 132 | 8.0 | 16.0 | 0.00 | 0.00 | 0.00 | 73 | 1020.7 |
| 20260906080405 | 78 | 61 | 9.0 | 15.0 | 0.00 | 0.00 | 0.00 | 73 | 1020.8 |
| 20260906075404 | 78 | 96 | 10.0 | 17.0 | 0.00 | 0.00 | 0.00 | 73 | 1020.9 |
| 20260906074905 | 78 | 112 | 9.0 | 15.0 | 0.00 | 0.00 | 0.00 | 73 | 1021.0 |
| 20260906074404 | 78 | 87 | 6.0 | 14.0 | 0.00 | 0.00 | 0.00 | 73 | 1021.0 |
| 20260906073905 | 78 | 83 | 7.0 | 14.0 | 0.00 | 0.00 | 0.00 | 72 | 1021.1 |
| 20260906073404 | 78 | 114 | 9.0 | 14.0 | 0.00 | 0.00 | 0.00 | 72 | 1021.2 |
| 20260906072904 | 78 | 95 | 7.0 | 14.0 | 0.00 | 0.00 | 0.00 | 73 | 1021.3 |
| 20260906071905 | 78 | 97 | 7.0 | 13.0 | 0.00 | 0.00 | 0.00 | 74 | 1021.2 |
| 20260906071405 | 78 | 87 | 7.0 | 15.0 | 0.00 | 0.00 | 0.00 | 75 | 1021.2 |
| 20260906070905 | 78 | 117 | 9.0 | 15.0 | 0.00 | 0.00 | 0.00 | 74 | 1021.3 |
| 20260906070405 | 78 | 128 | 7.0 | 15.0 | 0.00 | 0.00 | 0.00 | 73 | 1021.3 |
| 20260906065905 | 78 | 128 | 7.0 | 17.0 | 0.00 | 0.00 | 0.00 | 74 | 1021.3 |
| 20260906065405 | 78 | 105 | 9.0 | 16.0 | 0.00 | 0.00 | 0.00 | 72 | 1021.5 |
| 20260906064404 | 78 | 85 | 6.0 | 15.0 | 0.00 | 0.00 | 0.00 | 73 | 1021.7 |
| 20260906062404 | 78 | 76 | 7.0 | 15.0 | 0.00 | 0.00 | 0.00 | 73 | 1021.8 |
| 20260906061904 | 78 | 64 | 9.0 | 14.0 | 0.00 | 0.00 | 0.00 | 72 | 1022.0 |
| 20260906061405 | 78 | 98 | 7.0 | 14.0 | 0.00 | 0.00 | 0.00 | 73 | 1022.0 |
| 20260906060904 | 77 | 101 | 10.0 | 17.0 | 0.00 | 0.00 | 0.00 | 73 | 1022.0 |
| 20260906060405 | 77 | 111 | 6.0 | 16.0 | 0.00 | 0.00 | 0.00 | 74 | 1022.0 |
| 20260906055405 | 77 | 84 | 9.0 | 16.0 | 0.00 | 0.00 | 0.00 | 74 | 1022.2 |
| 20260906054905 | 77 | 154 | 7.0 | 16.0 | 0.00 | 0.00 | 0.00 | 76 | 1022.1 |
| 20260906054404 | 77 | 121 | 5.0 | 12.0 | 0.00 | 0.00 | 0.00 | 76 | 1022.0 |
| 20260906053904 | 76 | 104 | 8.0 | 16.0 | 0.00 | 0.00 | 0.00 | 76 | 1022.0 |
| 20260906053405 | 76 | 144 | 7.0 | 13.0 | 0.00 | 0.00 | 0.00 | 77 | 1022.0 |
| 20260906052904 | 76 | 126 | 8.0 | 17.0 | 0.00 | 0.00 | 0.00 | 77 | 1022.1 |
| 20260906052405 | 75 | 107 | 7.0 | 14.0 | 0.00 | 0.00 | 0.00 | 78 | 1022.0 |
| 20260906051905 | 75 | 136 | 4.0 | 12.0 | 0.00 | 0.00 | 0.00 | 79 | 1021.9 |
| 20260906051404 | 74 | 120 | 7.0 | 14.0 | 0.00 | 0.00 | 0.00 | 79 | 1022.0 |
| 20260906050905 | 75 | 111 | 8.0 | 14.0 | 0.00 | 0.00 | 0.00 | 78 | 1022.0 |
| 20260906050405 | 75 | 106 | 5.0 | 10.0 | 0.00 | 0.00 | 0.00 | 78 | 1022.0 |
| 20260906045904 | 75 | 88 | 8.0 | 16.0 | 0.00 | 0.00 | 0.00 | 77 | 1022.0 |
| 20260906044904 | 76 | 113 | 5.0 | 12.0 | 0.00 | 0.00 | 0.00 | 78 | 1021.8 |
| 20260906043904 | 75 | 110 | 0.0 | 7.0 | 0.00 | 0.00 | 0.00 | 79 | 1022.0 |
| 20260906043405 | 75 | 140 | 2.0 | 8.0 | 0.00 | 0.00 | 0.00 | 78 | 1021.9 |
| 20260906042405 | 75 | 157 | 0.0 | 1.0 | 0.00 | 0.00 | 0.00 | 78 | 1021.7 |
| 20260906041404 | 74 | 164 | 3.0 | 8.0 | 0.00 | 0.00 | 0.00 | 79 | 1021.7 |
| 20260906040904 | 74 | 139 | 0.0 | 6.0 | 0.00 | 0.00 | 0.00 | 79 | 1021.7 |
| 20260906040404 | 74 | 153 | 1.0 | 10.0 | 0.00 | 0.00 | 0.00 | 79 | 1021.7 |
| 20260906035905 | 74 | 155 | 4.0 | 9.0 | 0.00 | 0.00 | 0.00 | 80 | 1021.6 |
| 20260906034904 | 73 | 168 | 0.0 | 1.0 | 0.00 | 0.00 | 0.00 | 81 | 1021.5 |
| 20260906033904 | 72 | 162 | 2.0 | 8.0 | 0.00 | 0.00 | 0.00 | 83 | 1021.6 |
| 20260906033405 | 71 | 200 | 2.0 | 8.0 | 0.00 | 0.00 | 0.00 | 83 | 1021.5 |
| 20260906032905 | 71 | 177 | 3.0 | 9.0 | 0.00 | 0.00 | 0.00 | 84 | 1021.5 |
| 20260906031904 | 70 | 178 | 2.0 | 10.0 | 0.00 | 0.00 | 0.00 | 84 | 1021.4 |
| 20260906031405 | 70 | 163 | 3.0 | 8.0 | 0.00 | 0.00 | 0.00 | 85 | 1021.3 |
| 20260906030905 | 70 | 169 | 3.0 | 8.0 | 0.00 | 0.00 | 0.00 | 85 | 1021.3 |
| 20260906030404 | 70 | 183 | 3.0 | 10.0 | 0.00 | 0.00 | 0.00 | 85 | 1021.3 |
| 20260906025904 | 69 | 183 | 3.0 | 10.0 | 0.00 | 0.00 | 0.00 | 85 | 1021.2 |
| 20260906025405 | 70 | 203 | 1.0 | 5.0 | 0.00 | 0.00 | 0.00 | 84 | 1021.3 |
| 20260906024905 | 70 | 155 | 2.0 | 10.0 | 0.00 | 0.00 | 0.00 | 84 | 1021.2 |
| 20260906023405 | 69 | 167 | 3.0 | 9.0 | 0.00 | 0.00 | 0.00 | 85 | 1021.2 |
| 20260906022905 | 69 | 165 | 4.0 | 8.0 | 0.00 | 0.00 | 0.00 | 85 | 1021.1 |
| 20260906021904 | 69 | 161 | 3.0 | 9.0 | 0.00 | 0.00 | 0.00 | 84 | 1021.1 |
| 20260906021405 | 69 | 184 | 5.0 | 12.0 | 0.00 | 0.00 | 0.00 | 84 | 1020.9 |
| 20260906020405 | 69 | 149 | 2.0 | 6.0 | 0.00 | 0.00 | 0.00 | 84 | 1020.8 |
| 20260906015905 | 69 | 180 | 1.0 | 8.0 | 0.00 | 0.00 | 0.00 | 84 | 1020.7 |
| 20260906015405 | 69 | 171 | 2.0 | 6.0 | 0.00 | 0.00 | 0.00 | 84 | 1020.6 |
| 20260906014905 | 69 | 170 | 2.0 | 8.0 | 0.00 | 0.00 | 0.00 | 84 | 1020.7 |
| 20260906014404 | 69 | 153 | 4.0 | 12.0 | 0.00 | 0.00 | 0.00 | 84 | 1020.8 |
| 20260906013904 | 69 | 153 | 3.0 | 9.0 | 0.00 | 0.00 | 0.00 | 85 | 1020.8 |
| 20260906013405 | 69 | 162 | 3.0 | 12.0 | 0.00 | 0.00 | 0.00 | 85 | 1020.7 |
| 20260906012904 | 69 | 166 | 3.0 | 10.0 | 0.00 | 0.00 | 0.00 | 85 | 1020.8 |
| 20260906012404 | 69 | 140 | 2.0 | 7.0 | 0.00 | 0.00 | 0.00 | 85 | 1020.8 |
| 20260906011905 | 69 | 144 | 2.0 | 7.0 | 0.00 | 0.00 | 0.00 | 85 | 1020.6 |
| 20260906011405 | 69 | 168 | 3.0 | 7.0 | 0.00 | 0.00 | 0.00 | 85 | 1020.7 |
| 20260906010905 | 69 | 180 | 2.0 | 7.0 | 0.00 | 0.00 | 0.00 | 84 | 1020.7 |
| 20260906010404 | 69 | 166 | 3.0 | 7.0 | 0.00 | 0.00 | 0.00 | 84 | 1020.6 |
| 20260906005905 | 69 | 170 | 5.0 | 9.0 | 0.00 | 0.00 | 0.00 | 84 | 1020.5 |
| 20260906005405 | 69 | 158 | 4.0 | 9.0 | 0.00 | 0.00 | 0.00 | 84 | 1020.4 |
| 20260906004905 | 69 | 162 | 2.0 | 7.0 | 0.00 | 0.00 | 0.00 | 85 | 1020.6 |
| 20260906004405 | 69 | 158 | 3.0 | 7.0 | 0.00 | 0.00 | 0.00 | 85 | 1020.5 |
| 20260906003905 | 69 | 148 | 4.0 | 8.0 | 0.00 | 0.00 | 0.00 | 85 | 1020.5 |
| 20260906003405 | 69 | 160 | 2.0 | 6.0 | 0.00 | 0.00 | 0.00 | 85 | 1020.5 |
| 20260906002905 | 69 | 159 | 3.0 | 7.0 | 0.00 | 0.00 | 0.00 | 85 | 1020.4 |
| 20260906002404 | 69 | 161 | 3.0 | 7.0 | 0.00 | 0.00 | 0.00 | 85 | 1020.4 |
| 20260906001904 | 69 | 180 | 3.0 | 7.0 | 0.00 | 0.00 | 0.00 | 84 | 1020.4 |
| 20260906001404 | 69 | 194 | 4.0 | 8.0 | 0.00 | 0.00 | 0.00 | 84 | 1020.4 |
| 20260906000904 | 69 | 176 | 2.0 | 6.0 | 0.00 | 0.00 | 0.00 | 84 | 1020.5 |
| 20260906000405 | 69 | 163 | 2.0 | 8.0 | 0.00 | 0.00 | 0.00 | 84 | 1020.5 |
| 20260905235904 | 69 | 161 | 3.0 | 9.0 | 0.00 | 0.00 | 0.00 | 85 | 1020.5 |
| 20260905235405 | 69 | 165 | 1.0 | 6.0 | 0.00 | 0.00 | 0.00 | 85 | 1020.5 |
| 20260905234904 | 69 | 153 | 1.0 | 6.0 | 0.00 | 0.00 | 0.00 | 85 | 1020.5 |
| 20260905234405 | 69 | 166 | 0.0 | 6.0 | 0.00 | 0.00 | 0.00 | 85 | 1020.6 |
| 20260905233904 | 69 | 169 | 0.0 | 6.0 | 0.00 | 0.00 | 0.00 | 85 | 1020.7 |
| 20260905233405 | 69 | 173 | 4.0 | 8.0 | 0.00 | 0.00 | 0.00 | 85 | 1020.6 |
| 20260905231905 | 68 | 165 | 3.0 | 10.0 | 0.00 | 0.00 | 0.00 | 85 | 1020.6 |
| 20260905231404 | 68 | 162 | 2.0 | 7.0 | 0.00 | 0.00 | 0.00 | 85 | 1020.6 |
| 20260905230905 | 68 | 172 | 1.0 | 7.0 | 0.00 | 0.00 | 0.00 | 85 | 1020.5 |
| 20260905230405 | 68 | 170 | 3.0 | 7.0 | 0.00 | 0.00 | 0.00 | 85 | 1020.7 |
| 20260905225904 | 68 | 158 | 1.0 | 6.0 | 0.00 | 0.00 | 0.00 | 85 | 1020.8 |
| 20260905225404 | 68 | 183 | 0.0 | 0.0 | 0.00 | 0.00 | 0.00 | 85 | 1020.8 |
| 20260905224904 | 68 | 184 | 0.0 | 0.0 | 0.00 | 0.00 | 0.00 | 85 | 1020.8 |
| 20260905224405 | 68 | 184 | 1.0 | 3.0 | 0.00 | 0.00 | 0.00 | 84 | 1020.7 |
| 20260905223905 | 69 | 179 | 3.0 | 7.0 | 0.00 | 0.00 | 0.00 | 84 | 1020.8 |
| 20260905223404 | 69 | 176 | 4.0 | 7.0 | 0.00 | 0.00 | 0.00 | 84 | 1020.7 |
| 20260905222905 | 69 | 157 | 1.0 | 8.0 | 0.00 | 0.00 | 0.00 | 84 | 1020.7 |
| 20260905222405 | 69 | 166 | 5.0 | 8.0 | 0.00 | 0.00 | 0.00 | 84 | 1020.8 |
| 20260905221905 | 69 | 175 | 3.0 | 7.0 | 0.00 | 0.00 | 0.00 | 84 | 1020.9 |
| 20260905221404 | 69 | 184 | 2.0 | 5.0 | 0.00 | 0.00 | 0.00 | 83 | 1020.8 |
| 20260905220405 | 69 | 163 | 2.0 | 7.0 | 0.00 | 0.00 | 0.00 | 83 | 1020.7 |
| 20260905215904 | 69 | 178 | 3.0 | 6.0 | 0.00 | 0.00 | 0.00 | 83 | 1020.8 |
| 20260905215404 | 69 | 182 | 0.0 | 2.0 | 0.00 | 0.00 | 0.00 | 83 | 1020.8 |
| 20260905214405 | 69 | 177 | 2.0 | 6.0 | 0.00 | 0.00 | 0.00 | 82 | 1020.9 |
| 20260905213405 | 70 | 181 | 2.0 | 8.0 | 0.00 | 0.00 | 0.00 | 82 | 1021.0 |
| 20260905212904 | 70 | 188 | 0.0 | 0.0 | 0.00 | 0.00 | 0.00 | 82 | 1021.0 |
| 20260905212404 | 70 | 193 | 0.0 | 3.0 | 0.00 | 0.00 | 0.00 | 82 | 1021.1 |
| 20260905211905 | 70 | 184 | 1.0 | 7.0 | 0.00 | 0.00 | 0.00 | 82 | 1021.2 |
| 20260905211405 | 70 | 198 | 3.0 | 7.0 | 0.00 | 0.00 | 0.00 | 82 | 1021.2 |
| 20260905210904 | 69 | 179 | 2.0 | 6.0 | 0.00 | 0.00 | 0.00 | 82 | 1021.2 |
| 20260905210405 | 69 | 185 | 3.0 | 7.0 | 0.00 | 0.00 | 0.00 | 82 | 1021.3 |
| 20260905205905 | 69 | 191 | 2.0 | 8.0 | 0.00 | 0.00 | 0.00 | 82 | 1021.3 |
| 20260905205405 | 69 | 188 | 2.0 | 6.0 | 0.00 | 0.00 | 0.00 | 82 | 1021.5 |
| 20260905204904 | 69 | 177 | 2.0 | 9.0 | 0.00 | 0.00 | 0.00 | 82 | 1021.4 |
| 20260905204404 | 69 | 178 | 4.0 | 9.0 | 0.00 | 0.00 | 0.00 | 82 | 1021.4 |
| 20260905203904 | 69 | 175 | 2.0 | 7.0 | 0.00 | 0.00 | 0.00 | 82 | 1021.5 |
| 20260905203404 | 69 | 165 | 1.0 | 7.0 | 0.00 | 0.00 | 0.00 | 82 | 1021.4 |
| 20260905202905 | 69 | 180 | 1.0 | 7.0 | 0.00 | 0.00 | 0.00 | 82 | 1021.4 |
| 20260905202405 | 69 | 197 | 4.0 | 8.0 | 0.00 | 0.00 | 0.00 | 81 | 1021.5 |
| 20260905201404 | 69 | 180 | 3.0 | 7.0 | 0.00 | 0.00 | 0.00 | 81 | 1021.4 |
| 20260905200904 | 69 | 171 | 2.0 | 7.0 | 0.00 | 0.00 | 0.00 | 81 | 1021.3 |
| 20260905200404 | 69 | 172 | 2.0 | 7.0 | 0.00 | 0.00 | 0.00 | 81 | 1021.4 |
| 20260905195404 | 69 | 180 | 2.0 | 5.0 | 0.00 | 0.00 | 0.00 | 81 | 1021.3 |
| 20260905194905 | 69 | 201 | 3.0 | 6.0 | 0.00 | 0.00 | 0.00 | 81 | 1021.4 |
| 20260905194405 | 69 | 169 | 1.0 | 9.0 | 0.00 | 0.00 | 0.00 | 81 | 1021.3 |
| 20260905193905 | 69 | 175 | 1.0 | 6.0 | 0.00 | 0.00 | 0.00 | 81 | 1021.4 |
| 20260905192404 | 69 | 171 | 3.0 | 6.0 | 0.00 | 0.00 | 0.00 | 80 | 1021.4 |
| 20260905191905 | 69 | 171 | 4.0 | 7.0 | 0.00 | 0.00 | 0.00 | 80 | 1021.4 |
| 20260905191405 | 69 | 171 | 3.0 | 8.0 | 0.00 | 0.00 | 0.00 | 80 | 1021.5 |
| 20260905190904 | 69 | 176 | 3.0 | 9.0 | 0.00 | 0.00 | 0.00 | 80 | 1021.6 |
| 20260905185904 | 69 | 170 | 2.0 | 6.0 | 0.00 | 0.01 | 0.00 | 80 | 1021.5 |
| 20260905185405 | 69 | 168 | 3.0 | 7.0 | 0.00 | 0.02 | 0.00 | 80 | 1021.4 |
| 20260905184905 | 69 | 169 | 4.0 | 10.0 | 0.00 | 0.02 | 0.00 | 80 | 1021.3 |
| 20260905184404 | 69 | 170 | 1.0 | 7.0 | 0.00 | 0.02 | 0.00 | 80 | 1021.5 |
| 20260905183904 | 69 | 171 | 5.0 | 9.0 | 0.00 | 0.02 | 0.00 | 80 | 1021.5 |
| 20260905183405 | 69 | 172 | 2.0 | 7.0 | 0.00 | 0.02 | 0.00 | 80 | 1021.5 |
| 20260905182904 | 69 | 161 | 1.0 | 7.0 | 0.00 | 0.02 | 0.00 | 79 | 1021.6 |
| 20260905182404 | 69 | 170 | 0.0 | 6.0 | 0.00 | 0.02 | 0.00 | 79 | 1021.6 |
| 20260905181904 | 69 | 165 | 4.0 | 9.0 | 0.00 | 0.02 | 0.00 | 79 | 1021.6 |
| 20260905180905 | 70 | 160 | 2.0 | 8.0 | 0.00 | 0.02 | 0.00 | 78 | 1021.7 |
| 20260905180405 | 70 | 165 | 2.0 | 7.0 | 0.00 | 0.02 | 0.00 | 78 | 1021.8 |
| 20260905175905 | 70 | 137 | 0.0 | 7.0 | 0.00 | 0.02 | 0.00 | 78 | 1021.8 |
| 20260905175404 | 70 | 5 | 1.0 | 7.0 | 0.00 | 0.02 | 0.00 | 78 | 1021.7 |
| 20260905174905 | 70 | 171 | 3.0 | 7.0 | 0.00 | 0.02 | 0.00 | 78 | 1021.6 |
| 20260905174405 | 70 | 67 | 3.0 | 5.0 | 0.00 | 0.02 | 0.00 | 78 | 1021.5 |
| 20260905173905 | 70 | 137 | 2.0 | 9.0 | 0.00 | 0.02 | 0.00 | 78 | 1021.5 |
| 20260905173404 | 70 | 164 | 3.0 | 9.0 | 0.00 | 0.02 | 0.00 | 78 | 1021.6 |
| 20260905172905 | 70 | 155 | 2.0 | 10.0 | 0.00 | 0.02 | 0.00 | 78 | 1021.5 |
| 20260905172405 | 70 | 154 | 4.0 | 9.0 | 0.00 | 0.02 | 0.00 | 78 | 1021.6 |
| 20260905171904 | 70 | 130 | 3.0 | 9.0 | 0.00 | 0.02 | 0.00 | 78 | 1021.7 |
| 20260905170904 | 70 | 130 | 5.0 | 12.0 | 0.00 | 0.02 | 0.00 | 78 | 1021.7 |
| 20260905170404 | 70 | 117 | 4.0 | 9.0 | 0.00 | 0.02 | 0.00 | 78 | 1021.7 |
| 20260905165905 | 71 | 113 | 4.0 | 9.0 | 0.00 | 0.02 | 0.00 | 78 | 1021.6 |
| 20260905165405 | 71 | 120 | 5.0 | 12.0 | 0.00 | 0.02 | 0.00 | 77 | 1021.5 |
| 20260905164904 | 71 | 118 | 6.0 | 13.0 | 0.00 | 0.02 | 0.00 | 77 | 1021.4 |
| 20260905164405 | 71 | 119 | 4.0 | 12.0 | 0.00 | 0.02 | 0.00 | 77 | 1021.3 |
| 20260905163905 | 71 | 137 | 6.0 | 13.0 | 0.00 | 0.02 | 0.00 | 77 | 1021.3 |
| 20260905163404 | 71 | 97 | 6.0 | 12.0 | 0.00 | 0.02 | 0.00 | 77 | 1021.3 |
| 20260905162904 | 71 | 103 | 5.0 | 12.0 | 0.00 | 0.02 | 0.00 | 78 | 1021.1 |
| 20260905162404 | 71 | 117 | 4.0 | 10.0 | 0.00 | 0.02 | 0.00 | 78 | 1021.0 |
| 20260905161904 | 70 | 134 | 3.0 | 9.0 | 0.00 | 0.02 | 0.00 | 78 | 1021.1 |
| 20260905161405 | 70 | 129 | 5.0 | 9.0 | 0.00 | 0.02 | 0.00 | 78 | 1020.9 |
| 20260905160904 | 70 | 116 | 4.0 | 9.0 | 0.00 | 0.02 | 0.00 | 78 | 1020.8 |
| 20260905160405 | 70 | 111 | 5.0 | 8.0 | 0.00 | 0.02 | 0.00 | 78 | 1020.8 |
| 20260905155905 | 70 | 125 | 3.0 | 10.0 | 0.00 | 0.02 | 0.00 | 78 | 1020.7 |
| 20260905155404 | 70 | 138 | 4.0 | 9.0 | 0.00 | 0.02 | 0.00 | 78 | 1020.7 |